Terminal Aerodrome Forecast
Issued by NWS Louisville, KY

Home | Current Version | Previous Version | Text Only | Print | Product List | Glossary On
Versions: 1 2 3 4 5 6 7 8 9 10 11 12 13 14 15 16 17 18
000
FTUS43 KLMK 190300 AAA
TAFLEX
TAF AMD
KLEX 190327Z 1903/1924 33006KT P6SM OVC025
     FM190800 VRB03KT 5SM BR SCT040
     FM191300 VRB03KT P6SM FEW250=

USA.gov is the U.S. government's official web portal to all federal, state and local government web resources and services.